This demonstration page uses our WeatherBlox Daily Observations layout. Learn more.

Left ArrowRight Arrow

41.55636, -103.73856

Hourly Observations for May 13, 2020

Temp ( °F °C ) Dew Point ( °F °C ) Humidity (%) Winds ( mph kmh ) Pressure ( in mb ) Visibility ( mi km ) Precip ( " mm )
12:58 am 00:58 Mostly Cloudy 49 9.7 41 4.9 72 72 SSE 22 35 29.79 1009 10 16 N/A
1:58 am 01:58 Cloudy 47 8.3 41 5 80 80 SSE 14 22 29.81 1009 10 16 N/A
2:58 am 02:58 Cloudy 46 7.9 41 5 82 82 S 21 33 29.80 1009 10 16 N/A
3:58 am 03:58 Cloudy 46 7.6 41 5 84 84 E 12 19 29.80 1009 10 16 N/A
4:58 am 04:58 Cloudy 45 7.3 41 5.1 86 86 SE 7 11 29.76 1008 10 16 N/A
5:58 am 05:58 Cloudy 45 7.3 41 5.2 87 87 ENE 8 13 29.75 1008 10 16 N/A
6:58 am 06:58 Cloudy 45 7.4 41 5.2 86 86 SSW 14 22 29.73 1007 10 16 N/A
7:58 am 07:58 Cloudy 46 7.5 42 5.4 87 87 S 9 15 29.71 1006 10 16 N/A
8:58 am 08:58 Cloudy 46 7.6 42 5.5 87 87 S 13 20 29.69 1006 10 16 N/A
9:58 am 09:58 Mostly Cloudy 45 7 42 5.3 89 89 SSE 9 15 29.69 1005 10 16 N/A
10:58 am 10:58 Mostly Cloudy 44 6.5 42 5.5 93 93 S 9 15 29.69 1005 10 16 N/A
11:58 am 11:58 Mostly Cloudy 44 6.6 42 5.6 93 93 S 9 15 29.69 1005 8 13 N/A
12:58 pm 12:58 Mostly Cloudy with Mist and Fog 44 6.6 42 5.8 95 95 S 14 22 29.71 1006 6 10 N/A
1:58 pm 13:58 Mostly Sunny 46 7.9 43 6 88 88 SSW 8 13 29.70 1006 10 16 N/A
2:58 pm 14:58 Sunny 53 11.8 43 6 68 68 SW 8 13 29.69 1005 10 16 N/A
3:58 pm 15:58 Sunny 56 13.3 44 6.5 64 64 NW 25 41 29.72 1007 10 16 N/A
4:58 pm 16:58 Sunny 55 12.9 44 6.8 67 67 NW 16 26 29.74 1007 10 16 N/A
5:58 pm 17:58 Sunny 60 15.6 47 8.1 61 61 N 8 13 29.71 1006 10 16 N/A
6:58 pm 18:58 Sunny 64 18 44 6.4 47 47 N 12 19 29.68 1005 10 16 N/A
7:58 pm 19:58 Sunny 68 19.8 43 6.1 41 41 N 10 17 29.65 1004 10 16 N/A
8:58 pm 20:58 Mostly Sunny 70 20.9 42 5.3 36 36 N 9 15 29.65 1004 10 16 N/A
9:58 pm 21:58 Partly Cloudy 70 21.2 38 3.6 32 32 E 6 9 29.65 1004 10 16 N/A
10:58 pm 22:58 Mostly Cloudy with Light Showers 63 17.1 47 8.5 57 57 NNE 7 11 29.69 1006 10 16 0.06 1.52
11:58 pm 23:58 Mostly Cloudy 57 14.1 49 9.4 74 74 SE 15 24 29.74 1007 10 16 N/A

Powered by AerisWeather